GW4915 Weather Reports


time (UTC)temp
C
wind
direction
speed
KPH
gust
KPH
rain 1hr
cm
rain 24hr
cm
rain mn
cm
humidity
%
barometer
mb
20260510204518 16 323 8.0 9.7 0.00 0.00 0.00 31 1017.0
20260510204014 17 344 12.9 14.5 0.00 0.00 0.00 29 1016.7
20260510203512 16 271 3.2 3.2 0.00 0.00 0.00 30 1016.6
20260510203008 16 310 8.0 11.3 0.00 0.00 0.00 29 1016.9
20260510202502 16 351 8.0 9.7 0.00 0.00 0.00 29 1016.9
20260510201959 16 273 4.8 4.8 0.00 0.00 0.00 29 1017.0
20260510201457 16 233 8.0 11.3 0.00 0.00 0.00 30 1017.1
20260510200953 17 330 4.8 8.0 0.00 0.00 0.00 28 1017.1
20260510200448 17 275 14.5 16.1 0.00 0.00 0.00 29 1017.2
20260510195941 16 282 9.7 12.9 0.00 0.00 0.00 29 1017.0
20260510195439 16 4 9.7 11.3 0.00 0.00 0.00 32 1017.0
20260510194934 16 332 8.0 11.3 0.00 0.00 0.00 30 1017.2
20260510194430 16 292 6.4 9.7 0.00 0.00 0.00 30 1017.3
20260510193926 16 311 9.7 12.9 0.00 0.00 0.00 29 1017.2
20260510193421 15 293 4.8 4.8 0.00 0.00 0.00 31 1017.1
20260510192917 16 321 4.8 4.8 0.00 0.00 0.00 29 1017.1
20260510192412 16 326 4.8 4.8 0.00 0.00 0.00 29 1017.3
20260510191908 16 325 14.5 17.7 0.00 0.00 0.00 29 1017.4
20260510191404 16 296 8.0 9.7 0.00 0.00 0.00 30 1017.4
20260510190902 16 3 4.8 8.0 0.00 0.00 0.00 28 1017.3
20260510190359 16 313 8.0 9.7 0.00 0.00 0.00 28 1017.5
20260510185855 16 250 3.2 4.8 0.00 0.00 0.00 30 1017.6
20260510185353 16 316 8.0 9.7 0.00 0.00 0.00 31 1017.3
20260510184850 15 327 9.7 11.3 0.00 0.00 0.00 29 1017.3
20260510184347 15 339 9.7 14.5 0.00 0.00 0.00 29 1017.4
20260510183847 15 280 4.8 8.0 0.00 0.00 0.00 32 1017.2
20260510183343 15 297 6.4 9.7 0.00 0.00 0.00 29 1017.4
20260510182838 15 305 8.0 12.9 0.00 0.00 0.00 31 1017.2
20260510182335 15 248 8.0 9.7 0.00 0.00 0.00 30 1017.3
20260510181831 15 327 8.0 9.7 0.00 0.00 0.00 31 1017.4
20260510181329 15 303 3.2 3.2 0.00 0.00 0.00 31 1017.1
20260510180825 15 339 6.4 9.7 0.00 0.00 0.00 28 1017.1
20260510180322 15 349 4.8 8.0 0.00 0.00 0.00 28 1017.2
20260510175819 15 296 11.3 14.5 0.00 0.00 0.00 29 1017.3
20260510175315 15 302 12.9 17.7 0.00 0.00 0.00 28 1017.2
20260510174811 15 81 4.8 9.7 0.00 0.00 0.00 29 1017.2
20260510174309 15 21 8.0 9.7 0.00 0.00 0.00 28 1017.1
20260510173805 15 223 4.8 8.0 0.00 0.00 0.00 29 1017.1
20260510173301 14 306 4.8 4.8 0.00 0.00 0.00 32 1017.2
20260510172756 14 319 3.2 4.8 0.00 0.00 0.00 30 1017.3
20260510172253 14 304 11.3 12.9 0.00 0.00 0.00 31 1017.2
20260510171749 15 315 4.8 9.7 0.00 0.00 0.00 30 1017.0
20260510171247 14 9 3.2 3.2 0.00 0.00 0.00 31 1017.2
20260510170744 14 266 6.4 9.7 0.00 0.00 0.00 32 1017.3
20260510170240 14 282 4.8 4.8 0.00 0.00 0.00 31 1017.3
20260510165735 14 358 8.0 9.7 0.00 0.00 0.00 30 1017.3
20260510165232 13 301 1.6 3.2 0.00 0.00 0.00 30 1017.7
20260510164729 14 11 8.0 9.7 0.00 0.00 0.00 32 1017.5
20260510164227 14 304 14.5 16.1 0.00 0.00 0.00 30 1017.7
20260510163726 14 297 16.1 22.5 0.00 0.00 0.00 30 1017.6
20260510163222 14 344 14.5 16.1 0.00 0.00 0.00 30 1017.3
20260510162722 13 285 16.1 17.7 0.00 0.00 0.00 29 1017.5
20260510162220 14 317 8.0 12.9 0.00 0.00 0.00 31 1017.6
20260510161715 14 350 12.9 17.7 0.00 0.00 0.00 33 1017.4
20260510161211 13 294 4.8 8.0 0.00 0.00 0.00 34 1017.2
20260510160709 13 318 9.7 12.9 0.00 0.00 0.00 32 1017.1
20260510160204 13 315 16.1 22.5 0.00 0.00 0.00 31 1017.4
20260510155700 13 320 17.7 22.5 0.00 0.00 0.00 31 1017.2
20260510155156 13 7 9.7 12.9 0.00 0.00 0.00 33 1017.2
20260510154652 13 349 16.1 22.5 0.00 0.00 0.00 34 1017.2
20260510154148 13 312 16.1 29.0 0.00 0.00 0.00 34 1017.3
20260510153643 13 279 11.3 20.9 0.00 0.00 0.00 32 1017.2
20260510153140 13 343 9.7 12.9 0.00 0.00 0.00 35 1017.1
20260510152636 13 322 8.0 11.3 0.00 0.00 0.00 37 1017.2
20260510152132 12 311 4.8 4.8 0.00 0.00 0.00 39 1017.2
20260510151629 13 328 8.0 11.3 0.00 0.00 0.00 37 1017.0
20260510151128 13 323 17.7 22.5 0.00 0.00 0.00 37 1016.9
20260510150627 13 324 8.0 11.3 0.00 0.00 0.00 37 1017.0
20260510150124 12 293 3.2 3.2 0.00 0.00 0.00 38 1017.3
20260510145620 12 349 3.2 4.8 0.00 0.00 0.00 38 1016.9
20260510145117 13 309 4.8 8.0 0.00 0.00 0.00 37 1016.9
20260510144613 12 275 6.4 9.7 0.00 0.00 0.00 39 1017.0
20260510144109 12 318 11.3 12.9 0.00 0.00 0.00 38 1016.9
20260510143605 12 293 9.7 12.9 0.00 0.00 0.00 40 1016.6
20260510143101 11 359 9.7 12.9 0.00 0.00 0.00 40 1016.9
20260510142558 12 294 4.8 8.0 0.00 0.00 0.00 41 1016.7
20260510142055 12 284 4.8 8.0 0.00 0.00 0.00 40 1016.8
20260510141551 11 311 3.2 4.8 0.00 0.00 0.00 42 1016.7
20260510141049 11 302 1.6 4.8 0.00 0.00 0.00 43 1016.8
20260510140545 11 341 11.3 14.5 0.00 0.00 0.00 41 1016.7
20260510140045 11 329 8.0 11.3 0.00 0.00 0.00 43 1016.8
20260510135541 11 1 3.2 3.2 0.00 0.00 0.00 43 1017.1
20260510135037 11 271 8.0 9.7 0.00 0.00 0.00 44 1016.8
20260510134534 11 284 3.2 3.2 0.00 0.00 0.00 46 1016.7
20260510134031 11 22 3.2 3.2 0.00 0.00 0.00 45 1016.7
20260510133527 11 268 1.6 1.6 0.00 0.00 0.00 44 1016.8
20260510133023 11 319 0.0 1.6 0.00 0.00 0.00 45 1016.7
20260510132520 10 284 0.0 0.0 0.00 0.00 0.00 46 1016.8
20260510132017 10 276 0.0 1.6 0.00 0.00 0.00 46 1016.4
20260510131515 10 250 3.2 3.2 0.00 0.00 0.00 45 1016.8
20260510131012 10 3 3.2 3.2 0.00 0.00 0.00 47 1016.6
20260510130508 10 311 3.2 3.2 0.00 0.00 0.00 47 1016.6
20260510130006 10 337 3.2 3.2 0.00 0.00 0.00 46 1016.5
20260510125501 10 309 3.2 4.8 0.00 0.00 0.00 50 1016.6
20260510124958 9 320 8.0 12.9 0.00 0.00 0.00 51 1016.4
20260510124454 9 297 1.6 3.2 0.00 0.00 0.00 52 1016.3
20260510123951 9 276 4.8 4.8 0.00 0.00 0.00 51 1016.4
20260510123447 9 274 4.8 4.8 0.00 0.00 0.00 51 1016.1
20260510122943 9 318 1.6 3.2 0.00 0.00 0.00 52 1016.3
20260510122438 8 310 1.6 1.6 0.00 0.00 0.00 54 1016.1
20260510121935 8 271 8.0 9.7 0.00 0.00 0.00 54 1016.1
20260510121432 8 333 6.4 8.0 0.00 0.00 0.00 56 1016.1
20260510120930 8 0 6.4 9.7 0.00 0.00 0.00 57 1016.1
20260510120427 8 322 4.8 4.8 0.00 0.00 0.00 58 1016.1
20260510115922 7 336 4.8 4.8 0.00 0.00 0.00 59 1016.0
20260510115420 7 325 4.8 4.8 0.00 0.00 0.00 59 1015.9
20260510114915 7 337 3.2 4.8 0.00 0.00 0.00 61 1015.9
20260510114413 7 309 4.8 4.8 0.00 0.00 0.00 62 1015.8
20260510113908 7 322 1.6 1.6 0.00 0.00 0.00 64 1015.7
20260510113404 7 298 6.4 8.0 0.00 0.00 0.00 64 1015.7
20260510112901 6 324 4.8 4.8 0.00 0.00 0.00 66 1015.6
20260510112358 6 297 0.0 1.6 0.00 0.00 0.00 68 1015.3
20260510111854 6 359 3.2 4.8 0.00 0.00 0.00 70 1015.5
20260510111351 5 294 0.0 0.0 0.00 0.00 0.00 73 1015.0
20260510110846 5 12 1.6 3.2 0.00 0.00 0.00 76 1015.3
20260510110343 5 293 0.0 0.0 0.00 0.00 0.00 77 1015.2
20260510105839 4 292 0.0 0.0 0.00 0.00 0.00 77 1014.9
20260510105339 3 291 0.0 0.0 0.00 0.00 0.00 77 1014.9
20260510104835 3 291 0.0 0.0 0.00 0.00 0.00 75 1015.1
20260510104332 4 291 0.0 0.0 0.00 0.00 0.00 75 1014.8
20260510103829 4 291 0.0 0.0 0.00 0.00 0.00 74 1014.8
20260510103326 5 292 0.0 0.0 0.00 0.00 0.00 74 1014.9
20260510102821 5 291 0.0 0.0 0.00 0.00 0.00 74 1014.9
20260510102317 5 291 0.0 0.0 0.00 0.00 0.00 73 1014.5
20260510101815 5 291 0.0 0.0 0.00 0.00 0.00 73 1014.5
20260510101313 5 292 1.6 1.6 0.00 0.00 0.00 72 1014.5
20260510100808 5 293 1.6 1.6 0.00 0.00 0.00 71 1014.4
20260510100306 5 274 0.0 0.0 0.00 0.00 0.00 70 1014.2
20260510095802 5 272 0.0 0.0 0.00 0.00 0.00 70 1014.2
20260510095257 6 266 0.0 1.6 0.00 0.00 0.00 69 1014.2
20260510094756 6 289 0.0 0.0 0.00 0.00 0.00 68 1014.4
20260510094252 6 297 0.0 1.6 0.00 0.00 0.00 68 1014.3
20260510093748 6 288 0.0 0.0 0.00 0.00 0.00 68 1013.9
20260510093245 6 289 0.0 0.0 0.00 0.00 0.00 68 1014.3
20260510092741 6 281 0.0 0.0 0.00 0.00 0.00 68 1014.2
20260510092237 6 281 0.0 0.0 0.00 0.00 0.00 67 1014.0
20260510091733 6 280 0.0 0.0 0.00 0.00 0.00 66 1014.0
20260510091230 6 284 0.0 0.0 0.00 0.00 0.00 66 1014.0
20260510090726 7 287 0.0 0.0 0.00 0.00 0.00 65 1013.9
20260510090224 7 312 0.0 0.0 0.00 0.00 0.00 65 1013.5
20260510085719 7 290 0.0 0.0 0.00 0.00 0.00 65 1013.4
20260510085214 7 290 0.0 0.0 0.00 0.00 0.00 65 1013.2
20260510084710 7 295 1.6 1.6 0.00 0.00 0.00 63 1013.0
20260510084207 7 289 0.0 1.6 0.00 0.00 0.00 64 1013.0
20260510083704 7 289 1.6 1.6 0.00 0.00 0.00 63 1012.8
20260510083201 8 289 0.0 0.0 0.00 0.00 0.00 62 1012.8
20260510082656 8 300 1.6 1.6 0.00 0.00 0.00 61 1012.5
20260510082152 8 316 3.2 4.8 0.00 0.00 0.00 60 1012.5
20260510081647 8 340 4.8 8.0 0.00 0.00 0.00 60 1012.6
20260510081143 8 323 4.8 4.8 0.00 0.00 0.00 60 1012.3
20260510080642 8 17 3.2 3.2 0.00 0.00 0.00 60 1012.2
20260510080140 8 282 4.8 8.0 0.00 0.00 0.00 61 1012.1
20260510075637 8 318 1.6 1.6 0.00 0.00 0.00 61 1011.8
20260510075134 8 23 4.8 4.8 0.00 0.00 0.00 61 1011.9
20260510074631 8 314 3.2 4.8 0.00 0.00 0.00 62 1011.5
20260510074126 8 313 3.2 3.2 0.00 0.00 0.00 62 1011.4
20260510073623 9 301 0.0 1.6 0.00 0.00 0.00 61 1011.4
20260510073120 9 334 1.6 1.6 0.00 0.00 0.00 61 1011.4
20260510072616 9 334 3.2 3.2 0.00 0.00 0.00 61 1011.0
20260510072113 9 309 3.2 3.2 0.00 0.00 0.00 61 1011.2
20260510071608 10 303 4.8 4.8 0.00 0.00 0.00 61 1010.9
20260510071106 10 16 4.8 4.8 0.00 0.00 0.00 61 1010.8
20260510070603 10 39 3.2 4.8 0.00 0.00 0.00 61 1010.8
20260510065557 9 346 1.6 3.2 0.00 0.00 0.00 63 1010.6
20260510065053 9 291 0.0 1.6 0.00 0.00 0.00 65 1010.5
20260510064549 9 290 0.0 0.0 0.00 0.00 0.00 64 1010.6
20260510064046 9 290 0.0 0.0 0.00 0.00 0.00 64 1010.5
20260510063543 9 288 0.0 0.0 0.00 0.00 0.00 64 1010.5
20260510063040 10 287 1.6 1.6 0.00 0.00 0.00 63 1010.5
20260510062536 10 286 0.0 0.0 0.00 0.00 0.00 62 1010.4
20260510062031 10 291 0.0 0.0 0.00 0.00 0.00 61 1010.4
20260510061528 10 301 0.0 0.0 0.00 0.00 0.00 59 1010.5
20260510061025 10 323 0.0 0.0 0.00 0.00 0.00 59 1010.5
20260510060521 11 299 0.0 0.0 0.00 0.00 0.00 59 1010.2
20260510060017 11 308 1.6 1.6 0.00 0.00 0.00 59 1010.5
20260510055513 11 292 0.0 0.0 0.00 0.00 0.00 59 1010.1
20260510055012 11 300 0.0 0.0 0.00 0.00 0.00 59 1010.3
20260510054507 11 297 1.6 3.2 0.00 0.00 0.00 59 1010.0
20260510054002 11 292 0.0 0.0 0.00 0.00 0.00 59 1010.1
20260510053457 11 301 1.6 1.6 0.00 0.00 0.00 59 1009.9
20260510052954 11 290 0.0 0.0 0.00 0.00 0.00 60 1009.8
20260510052450 11 290 0.0 0.0 0.00 0.00 0.00 60 1009.6
20260510051946 11 278 1.6 1.6 0.00 0.00 0.00 60 1009.6
20260510051442 11 307 0.0 1.6 0.00 0.00 0.00 60 1009.4
20260510050938 11 328 0.0 0.0 0.00 0.00 0.00 59 1009.3
20260510050436 12 329 1.6 1.6 0.00 0.00 0.00 58 1009.2
20260510045933 12 352 1.6 3.2 0.00 0.00 0.00 58 1009.1
20260510045430 11 29 3.2 4.8 0.00 0.00 0.00 61 1009.0
20260510044926 11 293 0.0 1.6 0.00 0.00 0.00 60 1008.9
20260510044424 11 295 1.6 1.6 0.00 0.00 0.00 60 1008.8
20260510043920 12 290 0.0 0.0 0.00 0.00 0.00 58 1008.5
20260510043416 12 291 0.0 0.0 0.00 0.00 0.00 57 1008.6
20260510042915 12 289 0.0 0.0 0.00 0.00 0.00 56 1008.5
20260510042410 12 326 3.2 3.2 0.00 0.00 0.00 55 1008.5
20260510041906 12 295 0.0 0.0 0.00 0.00 0.00 55 1008.5
20260510041403 13 286 0.0 0.0 0.00 0.00 0.00 55 1008.3
20260510040901 13 298 0.0 0.0 0.00 0.00 0.00 53 1008.4
20260510040358 13 299 0.0 1.6 0.00 0.00 0.00 52 1008.4
20260510035854 13 298 1.6 1.6 0.00 0.03 0.03 51 1008.0
20260510035349 13 306 1.6 3.2 0.00 0.03 0.03 51 1008.2
20260510034844 14 305 1.6 1.6 0.00 0.03 0.03 51 1008.1
20260510034343 14 326 3.2 4.8 0.00 0.03 0.03 50 1007.9
20260510033839 14 317 4.8 8.0 0.00 0.03 0.03 49 1007.8
20260510033336 14 317 4.8 4.8 0.00 0.03 0.03 49 1007.8
20260510032832 15 343 4.8 4.8 0.00 0.03 0.03 49 1007.7
20260510032329 15 311 8.0 12.9 0.00 0.03 0.03 48 1007.5
20260510031825 15 292 4.8 4.8 0.00 0.03 0.03 47 1007.3
20260510031320 15 281 4.8 8.0 0.00 0.03 0.03 48 1007.5
20260510030815 15 331 8.0 11.3 0.00 0.03 0.03 47 1007.0
20260510030312 15 299 4.8 4.8 0.00 0.03 0.03 47 1007.2
20260510025809 15 323 4.8 8.0 0.00 0.03 0.03 46 1007.2
20260510025306 15 301 12.9 20.9 0.00 0.03 0.03 45 1007.0
20260510024803 15 12 4.8 8.0 0.00 0.03 0.03 45 1007.0
20260510024300 16 304 3.2 3.2 0.00 0.03 0.03 46 1006.8
20260510023756 16 337 12.9 16.1 0.00 0.03 0.03 45 1006.8
20260510023253 16 335 14.5 16.1 0.00 0.03 0.03 45 1006.6
20260510022749 16 327 8.0 9.7 0.00 0.03 0.03 47 1006.7
20260510022249 16 11 8.0 9.7 0.00 0.03 0.03 49 1006.0
20260510021749 16 314 8.0 9.7 0.00 0.03 0.03 49 1006.2
20260510021247 16 321 9.7 11.3 0.00 0.03 0.03 49 1005.9
20260510020743 16 31 8.0 12.9 0.00 0.03 0.03 50 1005.6
20260510020242 16 307 4.8 4.8 0.00 0.03 0.03 51 1005.6
20260510015739 16 306 3.2 3.2 0.00 0.03 0.03 50 1005.5
20260510015235 17 288 3.2 3.2 0.00 0.03 0.03 50 1005.4
20260510014730 17 320 4.8 4.8 0.00 0.03 0.03 50 1005.1
20260510014228 16 295 4.8 4.8 0.00 0.03 0.03 50 1005.2
20260510013723 16 301 1.6 1.6 0.00 0.03 0.03 51 1004.9
20260510013219 16 295 1.6 1.6 0.00 0.03 0.03 51 1004.6
20260510012719 16 294 1.6 1.6 0.00 0.03 0.03 51 1004.4
20260510012214 16 295 0.0 0.0 0.00 0.03 0.03 50 1004.2
20260510011709 16 294 0.0 1.6 0.00 0.03 0.03 49 1004.0
20260510011205 17 287 0.0 0.0 0.00 0.03 0.03 49 1004.1
20260510010702 17 284 0.0 0.0 0.00 0.03 0.03 47 1004.0
20260510010158 17 289 0.0 0.0 0.00 0.03 0.03 47 1003.8
20260510005655 17 290 0.0 1.6 0.00 0.03 0.03 46 1003.9
20260510005151 17 272 0.0 0.0 0.00 0.03 0.03 45 1003.7
20260510004650 18 300 1.6 3.2 0.00 0.03 0.03 44 1003.7
20260510004148 18 282 0.0 1.6 0.00 0.03 0.03 44 1003.7
20260510003645 18 245 1.6 1.6 0.00 0.03 0.03 44 1003.5
20260510003140 18 279 0.0 0.0 0.00 0.03 0.03 43 1003.5
20260510002635 18 252 1.6 3.2 0.00 0.03 0.03 42 1003.4
20260510002132 18 294 1.6 1.6 0.00 0.03 0.03 42 1003.4
20260510001629 19 258 3.2 4.8 0.00 0.03 0.03 41 1003.4
20260510001128 19 297 8.0 11.3 0.00 0.03 0.03 40 1003.3
20260510000627 19 267 11.3 16.1 0.00 0.03 0.03 40 1003.2
20260510000126 19 286 3.2 3.2 0.00 0.03 0.03 40 1003.1
20260509235621 20 272 4.8 8.0 0.00 0.03 0.03 39 1003.0
20260509235118 20 277 9.7 12.9 0.00 0.03 0.03 39 1002.9
20260509234614 20 261 8.0 12.9 0.00 0.03 0.03 38 1002.9
20260509234112 20 216 3.2 4.8 0.00 0.03 0.03 37 1002.8
20260509233610 20 341 11.3 16.1 0.00 0.03 0.03 36 1002.9
20260509233107 20 16 8.0 9.7 0.00 0.03 0.03 37 1002.9
20260509232603 20 278 8.0 14.5 0.00 0.03 0.03 37 1002.7
20260509232100 20 319 16.1 22.5 0.00 0.03 0.03 37 1002.8
20260509231556 21 282 8.0 12.9 0.00 0.03 0.03 36 1002.8
20260509231054 20 292 6.4 11.3 0.00 0.03 0.03 36 1002.6
20260509230551 21 284 4.8 8.0 0.00 0.03 0.03 36 1002.8
20260509230048 21 287 12.9 16.1 0.00 0.03 0.03 36 1002.9
20260509225548 21 329 4.8 4.8 0.00 0.03 0.03 36 1002.6
20260509225044 21 304 17.7 25.7 0.00 0.03 0.03 35 1002.6
20260509224540 21 258 11.3 12.9 0.00 0.03 0.03 35 1002.6
20260509224037 21 278 6.4 14.5 0.00 0.03 0.03 36 1002.5
20260509223534 20 300 19.3 27.4 0.00 0.03 0.03 35 1002.4
20260509223032 21 271 14.5 20.9 0.00 0.03 0.03 36 1002.4
20260509222527 21 294 11.3 16.1 0.00 0.03 0.03 35 1002.3
20260509222023 21 297 11.3 16.1 0.00 0.03 0.03 34 1001.9
20260509221519 21 308 9.7 22.5 0.00 0.03 0.03 35 1002.3
20260509221015 21 284 11.3 14.5 0.00 0.03 0.03 35 1002.0
20260509220512 21 272 14.5 20.9 0.00 0.03 0.03 34 1001.7
20260509220008 21 274 8.0 14.5 0.00 0.03 0.03 34 1002.0
20260509215503 21 216 8.0 11.3 0.00 0.03 0.03 36 1001.7
20260509215001 21 336 8.0 12.9 0.00 0.03 0.03 36 1001.7
20260509214458 22 314 8.0 11.3 0.00 0.03 0.03 36 1001.6
20260509213954 22 258 1.6 3.2 0.00 0.03 0.03 37 1001.3
20260509213451 21 260 6.4 9.7 0.00 0.03 0.03 38 1001.5
20260509212948 21 255 11.3 14.5 0.00 0.03 0.03 38 1001.6
20260509212445 21 319 11.3 12.9 0.00 0.03 0.03 39 1001.5
20260509211942 21 0 12.9 17.7 0.00 0.03 0.03 39 1001.5
20260509211437 21 301 8.0 11.3 0.00 0.03 0.03 41 1001.6
20260509210934 21 259 4.8 9.7 0.00 0.03 0.03 40 1001.6
20260509210431 21 265 8.0 12.9 0.00 0.03 0.03 42 1001.7
20260509205926 21 232 14.5 17.7 0.00 0.03 0.03 42 1001.8
20260509205421 21 275 8.0 9.7 0.00 0.03 0.03 43 1001.8
20260509204917 21 277 11.3 14.5 0.00 0.03 0.03 44 1001.8